Miscellaneous Local Product
Issued by NWS North Platte, NE

Home | Current Version | Previous Version | Text Only | Print | Product List | Glossary On
Versions: 1 2 3 4 5 6 7 8 9 10 11 12 13 14 15 16 17 18 19 20 21 22 23 24 25 26 27 28 29 30 31 32 33 34 35 36 37 38 39 40 41 42 43 44 45 46 47 48 49 50
000
AXUS43 KLBF 231510
MISLBF


WESTERN AND NORTH CENTRAL NEBRASKA HOURLY WEATHER ROUNDUP
NATIONAL WEATHER SERVICE NORTH PLATTE NE
900 AM CST THU NOV 23 2017

NOTE: "FAIR" INDICATES FEW OR NO CLOUDS BELOW 12,000 FEET WITH NO
SIGNIFICANT WEATHER AND/OR OBSTRUCTIONS TO VISIBILITY.

NOTE: STATIONS NOT REPORTING VARIABLES SUCH AS SKY/WEATHER OR
PRESSURE ARE PROVIDED BY RAWS AND APRS NETWORKS AND ARE NOT UNDER
NATIONAL WEATHER SERVICE QUALITY CONTROL.

...OBSERVATIONS IN AND NEAR THE EASTERN PANHANDLE OF NEBRASKA...

CITY           SKY/WX    TMP DP  RH WIND       PRES   REMARKS
PINE RIDGE     CLOUDY    45  39  79 CALM      30.02F
GORDON         FAIR      41  36  82 SW9       30.03S
CHADRON        CLOUDY    36  33  89 CALM      30.04F
ALLIANCE       CLOUDY    36  35  96 W9        30.08S WCI  29
SIDNEY         CLOUDY    43  37  79 W6        30.14R
CRESCENT LAKE    N/A     46  40  81 W5          N/A
$$

...OBSERVATIONS IN NORTHERN NEBRASKA AND FAR SOUTHERN SOUTH DAKOTA...

CITY           SKY/WX    TMP DP  RH WIND       PRES   REMARKS
WINNER         FAIR      48  39  71 SW7       29.95F
VALENTINE      CLOUDY    44  39  82 SW10      30.00S
THEDFORD       SUNNY     45  39  78 W8        30.05R
AINSWORTH      SUNNY     47  41  78 W14       30.00F
O`NEILL        CLOUDY    42  39  90 CALM      30.00S
ORD            CLOUDY    38  35  89 CALM      30.03S
BROKEN BOW     SUNNY     44  37  76 CALM      30.04F
VALENTINE NWR    N/A     43  37  79 W8          N/A
HALSEY           N/A     47  38  71 W5          N/A
BUTTE            N/A     39  35  87 SW6         N/A  WCI  35
CHAMBERS         N/A     44  39  82 W7          N/A
EWING            N/A     42  39  89 CALM        N/A
$$

...OBSERVATIONS IN SOUTHWEST NEBRASKA AND FAR NORTHEAST COLORADO...

CITY           SKY/WX    TMP DP  RH WIND       PRES   REMARKS
HOLYOKE        FAIR      43  37  81 W7        30.14R
IMPERIAL       CLOUDY    45  39  79 W7        30.11F
OGALLALA       CLOUDY    41  37  86 W14       30.10S
NORTH PLATTE   CLOUDY    39  37  92 W5        30.08F
MCCOOK         CLOUDY    43  39  86 W12       30.10S
LEXINGTON      CLOUDY    41  37  83 W5        30.07F
STAPLETON        N/A     43  38  82 CALM        N/A
GOTHENBURG       N/A     41  35  80 W6          N/A
CALLAWAY         N/A     48  41  78 W8          N/A
$$

...OBSERVATIONS IN CENTRAL LINCOLN COUNTY AREA...

CITY           SKY/WX    TMP DP  RH WIND       PRES   REMARKS
N.P. AIRPORT   CLOUDY    39  37  92 W5        30.08F
N.P. DOWNTOWN    N/A     34  32  93 CALM        N/A
N.P. SOUTHEAST   N/A     40  37  88 CALM        N/A
N.P. HILLCREST   N/A     39  37  91 W5          N/A
$$

...SOME OBSERVATIONS FROM AROUND THE REGION...

CITY           SKY/WX    TMP DP  RH WIND       PRES   REMARKS
DENVER         CLOUDY    51  31  46 SW16      30.19S
COPPER MTN     CLOUDY    32  28  86 MISG      30.54F
GRAND JUNCTION CLOUDY    36  31  82 SE6       30.38R WCI  31
LARAMIE        CLOUDY    41  32  70 W13       30.26S
CHEYENNE       CLOUDY    51  34  52 NW12G26   30.20R
CASPER         CLOUDY    47  36  65 SW23      30.14F
BISMARCK       CLOUDY    31  28  89 SE3       29.80F
RAPID CITY     CLOUDY    46  37  71 CALM      29.95F
PIERRE         CLOUDY    39  37  92 SW3       29.90F
SIOUX FALLS    MOSUNNY   34  26  72 SW3       29.98F
OMAHA          PTSUNNY   40  31  70 N3        30.03R
GRAND ISLAND   SUNNY     45  38  76 W7        30.05S
SCOTTSBLUFF    CLOUDY    38  35  89 CALM      30.11R
KANSAS CITY    PTSUNNY   39  25  57 SW12      30.05R WCI  32
HILL CITY      CLOUDY    45  40  82 W7        30.10S
WICHITA        CLOUDY    39  27  62 SW3       30.09S
DODGE CITY     CLOUDY    51  38  60 W6        30.13S
OKLAHOMA CITY  MOSUNNY   42  25  50 SW8       30.13S
DALLAS         MOSUNNY   46  32  58 S3        30.18S
AMARILLO       CLOUDY    53  31  42 NW10      30.21R
$$




USA.gov is the U.S. government's official web portal to all federal, state and local government web resources and services.